Atlantic City, NJ

6:26 AM EDT on August 17, 2017 (GMT -0400)
Atlantic City International

Weather History for KACY - August, 2013

Change the Weather History Date:

Sunday, August 25, 2013

  Actual Average Record
Temperature  
Mean Temperature 65 °F 73 °F  
Max Temperature 80 °F 83 °F 97 °F (1968)
Min Temperature 50 °F 64 °F 47 °F (1987)
Degree Days  
Heating Degree Days 0 0  
Month to date heating degree days 0 0  
Since 1 June heating degree days 8 27  
Since 1 July heating degree days 0 0  
Cooling Degree Days 0 8  
Month to date cooling degree days 165 249  
Year to date cooling degree days 899 863  
Since 1 June cooling degree days 805 799  
Growing Degree Days 15 (Base 50)    
Moisture  
Dew Point 53 °F    
Average Humidity 67    
Maximum Humidity 100    
Minimum Humidity 33    
Precipitation  
Precipitation 0.00 in 0.12 in 4.33 in (1958)
Month to date precipitation 2.58 3.45  
Year to date precipitation 31.07 27.56  
Snow  
Snow 0.00 in 0.00 in 0.00 in (1903)
Month to date snowfall 0.0 0.0  
Since 1 June snowfall 0.0 0.0  
Since 1 July snowfall 0.0 0.0  
Snow Depth 0.00 in    
Sea Level Pressure  
Sea Level Pressure 30.36 in    
Wind  
Wind Speed 5 mph (West)    
Max Wind Speed 14 mph    
Max Gust Speed 18 mph    
Visibility 9 miles    
Events Fog    
T = Trace of Precipitation, MM = Missing Value Source: NWS Daily Summary

Daily Weather History Graph

Daily Weather History Graph

Search for Another Location

Airport or City:

Trip Planner

Search our weather history database for the weather conditions in past years. The results will help you decide how hot, cold, wet, or windy it might be!

Date:

Astronomy

Aug. 25, 2013 Rise Set
Actual Time 6:20 AM EDT 7:39 PM EDT
Civil Twilight 5:52 AM EDT 8:07 PM EDT
Nautical Twilight 5:18 AM EDT 8:40 PM EDT
Astronomical Twilight 4:43 AM EDT 9:15 PM EDT
Moon 10:10 PM EDT (8/25) 11:18 AM EDT (8/25)
Length of Visible Light 14h 15m
Length of Day
13h 19m
Waning Gibbous, 76% of the Moon is Illuminated
Aug 25
Waning Gibbous
Aug 28
Last Quarter
Sep 5
New
Sep 12
First Quarter
Sep 19
Full

Hourly Weather History & Observations

Time (EDT) Temp. Dew Point Humidity Pressure Visibility Wind Dir Wind Speed Gust Speed Precip Events Conditions
12:54 AM 53.1 °F 52.0 °F 96% 30.36 in 10.0 mi Calm Calm - N/A   Clear
1:54 AM 53.1 °F 52.0 °F 96% 30.35 in 10.0 mi Calm Calm - N/A   Clear
2:54 AM 52.0 °F 51.1 °F 97% 30.34 in 10.0 mi Calm Calm - N/A   Clear
3:29 AM 52.0 °F 51.1 °F 97% 30.34 in 10.0 mi Calm Calm - N/A   Partly Cloudy
3:49 AM 53.6 °F 51.8 °F 94% 30.34 in 10.0 mi Calm Calm - N/A   Mostly Cloudy
3:54 AM 53.1 °F 52.0 °F 96% 30.34 in 10.0 mi Calm Calm - N/A   Mostly Cloudy
4:05 AM 52.0 °F 52.0 °F 100% 30.34 in 4.0 mi NNW 4.6 mph - N/A   Scattered Clouds
4:13 AM 50.0 °F 48.9 °F 96% 30.34 in 3.0 mi NNW 3.5 mph - N/A   Mostly Cloudy
4:24 AM 51.1 °F 48.9 °F 92% 30.35 in 10.0 mi Calm Calm - N/A   Partly Cloudy
4:54 AM 52.0 °F 50.0 °F 93% 30.36 in 10.0 mi NW 3.5 mph - N/A   Clear
5:54 AM 53.1 °F 52.0 °F 96% 30.38 in 10.0 mi Calm Calm - N/A   Clear
6:27 AM 53.1 °F 52.0 °F 96% 30.39 in 0.2 mi NNW 3.5 mph - N/A Fog Fog
6:38 AM 53.1 °F 53.1 °F 100% 30.40 in 0.2 mi NW 3.5 mph - N/A Fog Fog
6:54 AM 54.0 °F 54.0 °F 100% 30.40 in 7.0 mi NW 3.5 mph - N/A   Scattered Clouds
7:54 AM 61.0 °F 59.0 °F 93% 30.42 in 10.0 mi NNW 4.6 mph - N/A   Clear
8:54 AM 68.0 °F 61.0 °F 78% 30.43 in 10.0 mi North 6.9 mph - N/A   Clear
9:54 AM 72.0 °F 61.0 °F 68% 30.43 in 10.0 mi NW 6.9 mph - N/A   Clear
10:54 AM 75.0 °F 59.0 °F 57% 30.42 in 10.0 mi Variable 3.5 mph - N/A   Clear
11:54 AM 77.0 °F 57.0 °F 50% 30.40 in 10.0 mi NW 5.8 mph - N/A   Partly Cloudy
12:54 PM 77.0 °F 55.0 °F 47% 30.39 in 10.0 mi Calm Calm - N/A   Partly Cloudy
1:54 PM 78.1 °F 54.0 °F 43% 30.38 in 10.0 mi Calm Calm - N/A   Clear
2:54 PM 79.0 °F 57.0 °F 47% 30.35 in 10.0 mi SSE 10.4 mph - N/A   Clear
3:54 PM 79.0 °F 48.9 °F 35% 30.35 in 10.0 mi SE 10.4 mph - N/A   Clear
4:54 PM 77.0 °F 46.0 °F 33% 30.34 in 10.0 mi SSE 10.4 mph - N/A   Clear
5:54 PM 75.0 °F 46.9 °F 37% 30.32 in 10.0 mi South 10.4 mph 17.3 mph N/A   Clear
6:54 PM 73.0 °F 48.0 °F 41% 30.31 in 10.0 mi South 8.1 mph - N/A   Clear
7:54 PM 69.1 °F 51.1 °F 53% 30.30 in 10.0 mi South 6.9 mph - N/A   Clear
8:54 PM 66.0 °F 53.1 °F 63% 30.30 in 10.0 mi SSW 5.8 mph - N/A   Clear
9:54 PM 64.0 °F 54.0 °F 70% 30.30 in 10.0 mi SSW 5.8 mph - N/A   Clear
10:54 PM 64.0 °F 55.9 °F 75% 30.31 in 10.0 mi SSW 5.8 mph - N/A   Clear
11:54 PM 63.0 °F 57.0 °F 81% 30.30 in 10.0 mi SW 5.8 mph - N/A   Clear